Regional Weather Roundup
Issued by NWS Green Bay, WI

Home | Current Version | Previous Version | Text Only | Print | Product List | Glossary On
Versions: 1 2 3 4 5 6 7 8 9 10 11 12 13 14 15 16 17 18 19 20 21 22 23 24 25 26 27 28 29 30 31 32 33 34 35 36 37 38 39 40 41 42 43 44 45 46 47 48 49 50
000
ASUS43 KGRB 011400
RWRGRB

NORTH-CENTRAL AND NORTHEAST WISCONSIN REGIONAL WEATHER ROUNDUP
NATIONAL WEATHER SERVICE GREEN BAY WI
900 AM CDT SAT OCT 01 2016

WIZ005-009-010>012-018-019-011500-
NORTH CENTRAL WISCONSIN

CITY           SKY/WX    TMP DP  RH WIND       PRES   REMARKS
IRONWOOD       CLOUDY    51  50  96 CALM      30.23S
MANITOWISH WTR NOT AVBL
ARBOR VITAE    NOT AVBL
EAGLE RIVER    NOT AVBL
LAND O LAKES   NOT AVBL
RHINELANDER    CLOUDY    56  53  90 NE6       30.20F
PHILLIPS       CLOUDY    54  52  93 NE5       30.20S
ANTIGO         NOT AVBL
TOMAHAWK       NOT AVBL
MERRILL        CLOUDY    55  53  95 NE5       30.19S
$$

WIZ013-073-011500-
NORTHEAST WISCONSIN

CITY           SKY/WX    TMP DP  RH WIND       PRES   REMARKS
IRON MOUNTAIN  CLOUDY    56  51  84 N7        30.18S
MARINETTE      CLOUDY    60  57  89 NE13      30.15S
$$

WIZ017-030-035>037-045-011500-
CENTRAL WISCONSIN

CITY           SKY/WX    TMP DP  RH WIND       PRES   REMARKS
MEDFORD        NOT AVBL
WAUSAU         CLOUDY    55  52  89 N7        30.15S
MOSINEE        PTSUNNY   55  55 100 N7        30.16F
MARSHFIELD     CLOUDY    58  52  80 NE9       30.15S
WISC RAPIDS    CLOUDY    59  56  89 NE7       30.14F
STEVENS POINT  NOT AVBL
WAUPACA        NOT AVBL
SHAWANO        NOT AVBL
CLINTONVILLE   CLOUDY    59  54  82 NE12      30.13S
WAUTOMA        LGT RAIN  59  57  93 NE9       30.12S
$$

WIZ038-039-048-051-011500-
FOX VALLEY

CITY           SKY/WX    TMP DP  RH WIND       PRES   REMARKS
NWS GREEN BAY  CLOUDY    61  60  97 NE8       30.12R
APPLETON       CLOUDY    57  57 100 NE10      30.10S
OSHKOSH        CLOUDY    59  56  89 NE9       30.10S
FOND DU LAC    CLOUDY    59  57  93 NE9       30.10S FOG
$$

WIZ022-050-052-011500-
EAST CENTRAL WISCONSIN

CITY           SKY/WX    TMP DP  RH WIND       PRES   REMARKS
EPHRAIM        NOT AVBL
WASHINGTON ISL NOT AVBL
STURGEON BAY   CLOUDY    62  55  77 NE8G17    30.13F
MANITOWOC      NOT AVBL
SHEBOYGAN      CLOUDY    58  56  93 NE9       30.09S
$$

LMZ563-521-522-541>543-011500-
LAKESHORE

STATION/POSITION TIME  TEMP    WIND        PRES    VSBY  WAVE
                       AIR SEA DIR/SP/G                  HT/PER
                 (UTC) (F)     (DEG/KT/KT) (MB)    (MI)  (FT/S)
SHEBOYGAN LKSHOR 1300   58      40/ 15/ 16 1018.6S
KEWAUNEE LKSHORE 1300   60      80/  9/ 12 1019.2F
NORTHPORT PIER   1300   63      60/ 15/ 19 1021.0R
N MID LAKE BUOY  1250   62 64   90/ 19/ 23 1020.4S         4/ 5
S GREEN BAY BUOY 1300   62 62   40/ 14/ 16 1019.6S
SISTER BAY LKSHO 1308   63     120/  8/ 12   N/A
CHAMBERS ISLAND  1300   61      20/ 13/ 18 1020.3S
MENOMINEE LKSHOR 1300   59      10/ 12/ 14 1019.7F
$$




USA.gov is the U.S. government's official web portal to all federal, state and local government web resources and services.